SCP
0 0 -0 -0 0 0 0 0 -0 0 -0 0 -0 -0 0 -0 -0 -0 -0 -0 -0 -0 -0 -0 -0 -0 -0 -0 -0 -0 -0 -0
0 0 -0 0 0 0 0 0 0 -0 -0 -0 0 0 0 -0 -0 -0 -0 -0 -0 -0 -0 -0 -0 -0 -0 -0 -0 -0 -0 -0
0 0 -0 0 0 0 0 0 0 0 -0 -0 -0 -0 -0 -0 -0 -0 -0 -0 -0 -0 -0 -0 -0 0 0 0 0 0 0 0
0 0 -0 0 0 0 0 0 0 0 -0 0 -0 -0 -0 -0 -0 -0 -0 -0 -0 0 0 0 0 0 0 0 0 0 0 0
0 -0 0 0 0 0 0 0 0 0 0 0 -0 0 -0 0 0 0 -0 0 0 0 0 0 0 0 0 0 0 0 0 0
0 0 0 0 0 0 0 0 0 0 0 0 0 0 0 0 0 0 0 0 0 0 0 0 0 0 0 0 0 0 0 0
0 0 -0 0 0 0 0 0 0 0 0 -0 0 0 -0 0 -0 0 0 0 -0 -0 0 0 0 0 0 0 0 0 0 0
0 0 0 0 0 0 0 0 0 0 0 0 0 0 0 0 0 0 0 0 0 -0 0 0 0 0 0 0 0 0 0 0
0 0 0 0 0 0 0 0 0 0 0 0 0 0 0 0 0 0 0 0 0 1 0 0 0 0 0 0 0 0 0 0
0 0 0 0 0 0 0 0 0 0 0 0 0 0 -0 0 0 0 0 0 0 0 0 0 0 0 0 0 0 0 0 0
0 0 0 0 0 0 0 0 0 0 0 0 0 0 0 0 0 0 0 0 0 0 0 0 0 0 0 0 0 0 0 0
0 0 0 0 0 0 0 0 0 0 0 0 0 0 0 0 0 0 0 0 0 0 0 0 0 0 0 0 0 0 0 0
0 0 0 0 0 0 0 0 0 0 0 0 0 0 0 0 0 0 0 0 0 0 0 0 0 0 0 0 0 0 0 0
0 0 0 0 0 0 0 0 0 0 0 0 0 0 0 0 0 0 0 0 0 0 0 0 0 0 0 0 0 0 0 0
0 0 0 0 0 0 0 0 0 0 0 0 0 0 0 0 0 0 0 0 0 0 0 0 0 0 0 0 0 0 0 0
0 0 0 0 0 0 0 0 0 0 0 0 0 0 0 0 0 0 0 0 0 0 0 0 0 0 0 0 0 0 0 0
0 0 0 0 0 0 0 0 0 0 0 0 0 0 0 0 0 0 0 0 0 0 0 0 0 0 0 0 0 0 0 0
0 0 0 0 0 0 0 0 0 0 0 0 0 0 0 0 0 0 0 0 0 0 0 0 0 0 0 0 0 0 0 0
0 0 0 0 0 0 0 0 0 0 0 0 0 0 0 0 0 0 0 0 0 0 0 0 0 0 0 0 0 0 0 -0
0 0 0 0 0 0 0 0 0 0 0 0 0 0 0 0 0 0 0 0 0 0 0 0 0 0 0 0 0 0 0 0
Wind_Speed_500mb
15 26 32 20 21 26 27 28 34 15 30 16 21 20 17 27 31 32 30 26 23 21 21 20 19 18 17 16 16 15 14 13
22 36 38 13 20 33 31 33 21 28 24 23 11 12 22 29 31 31 27 27 25 23 20 19 18 16 15 15 15 16 16 15
31 40 38 11 4 31 27 24 29 30 22 25 20 32 28 31 30 29 26 26 25 21 18 17 16 16 14 13 13 14 15 16
32 40 41 12 22 28 26 25 28 27 38 22 30 30 28 30 29 27 25 30 25 22 19 16 14 13 12 11 10 10 11 12
41 38 31 16 27 29 24 27 26 32 24 30 34 31 30 29 27 24 24 22 23 19 17 15 15 13 12 10 9 7 6 6
37 38 36 33 31 33 31 28 28 21 21 35 36 33 32 27 25 25 23 18 22 16 17 8 14 11 9 9 9 7 6 6
41 41 38 40 28 33 12 33 22 11 12 45 38 35 31 34 23 26 24 17 24 24 17 18 14 11 6 6 6 6 8 8
38 27 38 33 36 31 22 31 24 23 33 41 38 35 32 26 30 25 22 21 22 15 15 13 12 9 11 11 10 7 4 5
35 19 34 25 37 36 41 31 36 40 42 43 38 33 31 28 26 27 25 25 24 22 22 15 12 13 7 5 4 0 2 2
24 11 32 31 36 42 44 32 37 36 40 41 39 35 30 26 24 28 26 27 27 28 28 26 12 9 6 3 2 2 8 5
28 23 32 45 39 28 43 19 27 40 40 38 36 32 26 25 25 26 32 31 30 25 24 18 14 8 8 3 5 4 2 11
32 31 35 35 36 39 39 29 29 42 42 37 35 34 31 29 29 33 33 32 27 21 14 11 13 11 9 10 3 5 2 7
33 36 24 34 34 33 32 31 35 41 40 37 35 34 33 31 33 36 36 31 25 20 19 16 16 16 14 11 9 7 2 5
42 35 35 35 42 37 39 33 41 42 42 40 40 39 34 33 36 38 36 34 29 22 21 22 22 19 13 14 8 5 2 2
43 43 31 33 32 40 55 42 41 44 43 42 42 42 39 37 39 42 40 36 33 30 26 29 28 18 15 11 7 3 1 4
43 37 35 37 39 37 39 51 47 46 46 45 46 47 45 42 42 42 42 39 36 33 34 32 28 18 10 6 4 2 3 8
40 35 38 40 41 43 45 34 34 46 46 50 49 47 48 48 46 45 45 44 43 42 45 39 25 13 12 7 10 6 7 19
34 34 16 28 40 43 42 43 50 49 49 52 53 51 55 55 54 54 52 49 48 47 47 44 26 22 20 19 10 12 13 23
35 28 20 29 43 43 40 49 50 52 51 54 55 58 58 61 61 58 56 56 54 55 52 49 30 30 25 21 13 9 10 14
38 35 29 38 36 47 49 47 45 48 50 53 54 58 60 62 63 63 62 56 53 54 55 53 45 27 27 19 17 17 20 16
Wind_Direction_500mb
234 241 257 254 147 113 101 135 139 105 85 80 101 73 108 126 138 138 131 139 136 128 126 132 142 151 159 168 171 173 180 183
254 247 238 345 114 116 149 151 157 132 96 96 91 100 121 130 139 132 139 137 141 136 130 127 130 139 153 168 181 192 199 204
235 246 263 103 72 152 153 157 151 147 115 105 107 116 123 132 135 139 142 140 143 140 136 134 133 132 136 148 170 188 201 211
239 231 247 166 164 187 175 153 127 121 124 106 131 131 129 132 137 143 144 146 149 150 150 150 149 149 149 148 151 163 183 197
257 252 214 176 190 199 155 160 166 137 125 132 141 140 138 137 141 142 141 140 141 155 156 158 161 165 171 174 175 176 182 194
253 263 252 158 195 206 161 171 123 154 143 156 144 146 146 145 146 145 148 141 140 144 139 136 175 178 191 200 201 203 212 231
246 242 269 140 193 189 142 135 156 153 115 144 153 154 158 151 161 161 157 158 156 146 137 145 127 133 169 200 216 234 238 242
255 260 239 155 203 182 173 164 152 150 127 143 154 162 164 165 163 168 176 164 148 145 129 140 147 83 103 73 89 82 43 310
277 288 291 159 206 182 207 180 174 162 154 155 161 168 172 182 172 180 179 179 177 164 154 163 161 138 131 111 113 22 142 139
283 276 254 259 209 177 215 200 181 171 166 162 170 176 185 176 174 164 172 178 166 160 152 155 144 154 155 187 192 158 259 277
237 257 236 241 204 189 217 151 160 165 171 172 177 181 180 177 177 180 174 172 167 157 171 171 151 172 188 164 147 224 107 308
243 233 230 238 210 197 203 166 177 168 179 181 180 182 178 180 180 176 176 172 169 167 190 186 200 202 181 161 149 124 101 317
245 231 212 233 213 189 189 179 185 182 189 188 186 185 183 183 180 179 178 177 172 175 192 203 182 164 158 129 148 134 158 11
221 220 213 203 222 182 191 185 195 196 195 194 190 190 189 186 183 180 178 179 173 177 187 181 179 154 154 156 147 146 127 357
240 197 208 207 233 203 208 187 210 201 205 200 198 198 192 190 186 182 180 179 175 178 173 179 174 164 161 171 145 185 352 325
223 191 208 219 234 248 208 185 209 218 210 209 209 203 197 194 190 187 185 183 180 180 188 179 184 176 178 200 205 235 293 283
251 216 205 232 231 230 244 214 229 219 223 214 215 210 204 200 196 193 191 190 188 186 201 192 188 181 203 211 232 255 290 293
236 224 222 245 241 243 236 222 215 227 226 222 213 214 206 201 201 200 197 196 195 197 205 196 191 186 193 202 230 241 267 313
246 223 223 247 256 246 235 239 235 235 230 229 219 213 210 203 206 204 203 202 200 201 207 200 189 207 220 244 270 321 289 320
248 230 224 209 250 231 232 227 226 222 229 225 218 213 213 212 209 209 209 207 203 201 207 204 207 207 209 214 228 243 273 280
Wind_Speed_850mb
15 26 32 20 21 26 27 28 34 15 30 16 21 20 17 27 31 32 30 26 23 21 21 20 19 18 17 16 16 15 14 13
22 36 38 13 20 33 31 33 21 28 24 23 11 12 22 29 31 31 27 27 25 23 20 19 18 16 15 15 15 16 16 15
31 40 38 11 4 31 27 24 29 30 22 25 20 32 28 31 30 29 26 26 25 21 18 17 16 16 14 13 13 14 15 16
32 40 41 12 22 28 26 25 28 27 38 22 30 30 28 30 29 27 25 30 25 22 19 16 14 13 12 11 10 10 11 12
41 38 31 16 27 29 24 27 26 32 24 30 34 31 30 29 27 24 24 22 23 19 17 15 15 13 12 10 9 7 6 6
37 38 36 33 31 33 31 28 28 21 21 35 36 33 32 27 25 25 23 18 22 16 17 8 14 11 9 9 9 7 6 6
41 41 38 40 28 33 12 33 22 11 12 45 38 35 31 34 23 26 24 17 24 24 17 18 14 11 6 6 6 6 8 8
38 27 38 33 36 31 22 31 24 23 33 41 38 35 32 26 30 25 22 21 22 15 15 13 12 9 11 11 10 7 4 5
35 19 34 25 37 36 41 31 36 40 42 43 38 33 31 28 26 27 25 25 24 22 22 15 12 13 7 5 4 0 2 2
24 11 32 31 36 42 44 32 37 36 40 41 39 35 30 26 24 28 26 27 27 28 28 26 12 9 6 3 2 2 8 5
28 23 32 45 39 28 43 19 27 40 40 38 36 32 26 25 25 26 32 31 30 25 24 18 14 8 8 3 5 4 2 11
32 31 35 35 36 39 39 29 29 42 42 37 35 34 31 29 29 33 33 32 27 21 14 11 13 11 9 10 3 5 2 7
33 36 24 34 34 33 32 31 35 41 40 37 35 34 33 31 33 36 36 31 25 20 19 16 16 16 14 11 9 7 2 5
42 35 35 35 42 37 39 33 41 42 42 40 40 39 34 33 36 38 36 34 29 22 21 22 22 19 13 14 8 5 2 2
43 43 31 33 32 40 55 42 41 44 43 42 42 42 39 37 39 42 40 36 33 30 26 29 28 18 15 11 7 3 1 4
43 37 35 37 39 37 39 51 47 46 46 45 46 47 45 42 42 42 42 39 36 33 34 32 28 18 10 6 4 2 3 8
40 35 38 40 41 43 45 34 34 46 46 50 49 47 48 48 46 45 45 44 43 42 45 39 25 13 12 7 10 6 7 19
34 34 16 28 40 43 42 43 50 49 49 52 53 51 55 55 54 54 52 49 48 47 47 44 26 22 20 19 10 12 13 23
35 28 20 29 43 43 40 49 50 52 51 54 55 58 58 61 61 58 56 56 54 55 52 49 30 30 25 21 13 9 10 14
38 35 29 38 36 47 49 47 45 48 50 53 54 58 60 62 63 63 62 56 53 54 55 53 45 27 27 19 17 17 20 16
Wind_Direction_850mb
234 241 257 254 147 113 101 135 139 105 85 80 101 73 108 126 138 138 131 139 136 128 126 132 142 151 159 168 171 173 180 183
254 247 238 345 114 116 149 151 157 132 96 96 91 100 121 130 139 132 139 137 141 136 130 127 130 139 153 168 181 192 199 204
235 246 263 103 72 152 153 157 151 147 115 105 107 116 123 132 135 139 142 140 143 140 136 134 133 132 136 148 170 188 201 211
239 231 247 166 164 187 175 153 127 121 124 106 131 131 129 132 137 143 144 146 149 150 150 150 149 149 149 148 151 163 183 197
257 252 214 176 190 199 155 160 166 137 125 132 141 140 138 137 141 142 141 140 141 155 156 158 161 165 171 174 175 176 182 194
253 263 252 158 195 206 161 171 123 154 143 156 144 146 146 145 146 145 148 141 140 144 139 136 175 178 191 200 201 203 212 231
246 242 269 140 193 189 142 135 156 153 115 144 153 154 158 151 161 161 157 158 156 146 137 145 127 133 169 200 216 234 238 242
255 260 239 155 203 182 173 164 152 150 127 143 154 162 164 165 163 168 176 164 148 145 129 140 147 83 103 73 89 82 43 310
277 288 291 159 206 182 207 180 174 162 154 155 161 168 172 182 172 180 179 179 177 164 154 163 161 138 131 111 113 22 142 139
283 276 254 259 209 177 215 200 181 171 166 162 170 176 185 176 174 164 172 178 166 160 152 155 144 154 155 187 192 158 259 277
237 257 236 241 204 189 217 151 160 165 171 172 177 181 180 177 177 180 174 172 167 157 171 171 151 172 188 164 147 224 107 308
243 233 230 238 210 197 203 166 177 168 179 181 180 182 178 180 180 176 176 172 169 167 190 186 200 202 181 161 149 124 101 317
245 231 212 233 213 189 189 179 185 182 189 188 186 185 183 183 180 179 178 177 172 175 192 203 182 164 158 129 148 134 158 11
221 220 213 203 222 182 191 185 195 196 195 194 190 190 189 186 183 180 178 179 173 177 187 181 179 154 154 156 147 146 127 357
240 197 208 207 233 203 208 187 210 201 205 200 198 198 192 190 186 182 180 179 175 178 173 179 174 164 161 171 145 185 352 325
223 191 208 219 234 248 208 185 209 218 210 209 209 203 197 194 190 187 185 183 180 180 188 179 184 176 178 200 205 235 293 283
251 216 205 232 231 230 244 214 229 219 223 214 215 210 204 200 196 193 191 190 188 186 201 192 188 181 203 211 232 255 290 293
236 224 222 245 241 243 236 222 215 227 226 222 213 214 206 201 201 200 197 196 195 197 205 196 191 186 193 202 230 241 267 313
246 223 223 247 256 246 235 239 235 235 230 229 219 213 210 203 206 204 203 202 200 201 207 200 189 207 220 244 270 321 289 320
248 230 224 209 250 231 232 227 226 222 229 225 218 213 213 212 209 209 209 207 203 201 207 204 207 207 209 214 228 243 273 280